User: anonymous   Login
Location: Igri�s
(42.2144°N, 0.4320°W)
Time: 14:52:34
(UTC+00:00)
Language:

Cosmos 1802 Rocket - Orbit

View from above orbital plane
View from above orbital plane
View from above satellite
View from above satellite

Ground track
Ground track

The orbit data is extracted from the following two-line orbital elements,

1 17160U 86093B   20295.27696299 -.00000005 +00000-0 -20804-4 0  9994
2 17160 082.9284 237.6611 0038680 345.0883 168.6598 13.74637008700494
Epoch (UTC): 21 October 2020 06:38:49
Eccentricity: 0.0038680
inclination: 82.9284°
perigee height: 954 km
apogee height: 1011 km
right ascension of ascending node: 237.6611°
argument of perigee: 345.0883°
revolutions per day: 13.74637008
mean anomaly at epoch: 168.6598°
orbit number at epoch: 70049

The dashed part of the orbit path shows where the satellite is in the earth's shadow,  

DLR